Regional Weather Roundup
Issued by NWS

Home | Current Version | Previous Version | Text Only | Print | Product List | Glossary Off
Versions: 1 2 3 4 5 6 7 8 9 10 11 12 13 14 15 16 17 18 19 20 21 22 23 24 25 26 27 28 29 30 31 32 33 34 35 36 37 38 39 40 41 42 43 44 45 46 47 48 49 50

000
ASUS43 KBIS 280510
RWRND

NORTH DAKOTA REGIONAL WEATHER ROUNDUP
NATIONAL WEATHER SERVICE BISMARCK ND
1200 AM CDT WED JUN 28 2017

NOTE: "FAIR" INDICATES FEW OR NO CLOUDS BELOW 12,000 FEET WITH NO
SIGNIFICANT WEATHER AND/OR OBSTRUCTIONS TO VISIBILITY.


NDZ001>003-009>011-017-280600-
NORTHWEST NORTH DAKOTA

CITY           SKY/WX    TMP DP  RH WIND       PRES   REMARKS
WILLISTON      PTCLDY    66  57  72 NW7       29.67R
MINOT          CLOUDY    71  60  68 NW14      29.54R
MINOT AFB      CLOUDY    70  60  71 NW15      29.53S
$$

NDZ018>021-031>035-040>046-280600-
SOUTHWEST NORTH DAKOTA

CITY           SKY/WX    TMP DP  RH WIND       PRES   REMARKS
BISMARCK       CLOUDY    67  65  93 NW6       29.53S
DICKINSON      PTCLDY    67  54  63 NW10      29.64S
GARRISON         N/A     68  61  78 N7        29.56R
HETTINGER ARPT CLOUDY    68  54  60 N23       29.65F
$$

NDZ004>008-012>016-024-026-027-054-280600-
NORTHEAST NORTH DAKOTA

CITY           SKY/WX    TMP DP  RH WIND       PRES   REMARKS
GRAND FORKS    CLOUDY    67  50  54 SE15      29.57F
GRND FRKS AFB  CLOUDY    65  49  55 SE12      29.57F
DEVILS LAKE    CLOUDY    68  54  60 SE10      29.57F
$$

NDZ022-023-025-028>030-036>039-047>053-280600-
SOUTHEAST NORTH DAKOTA

CITY           SKY/WX    TMP DP  RH WIND       PRES   REMARKS
FARGO          CLOUDY    70  50  49 SE15G28   29.55F
JAMESTOWN      LGT RAIN  68  56  65 S9        29.48F
$$




USA.gov is the U.S. government's official web portal to all federal, state and local government web resources and services.